sat.trackr.live / text

‹ back to catalog

STARLINK-36988

NORAD 67998 · 2026-039N

PAYLOAD ACTIVE UNKNOWN

§ Identity

Operator
Country
US
Launch date
2026-02-27
Launch site
AFETR
Launch vehicle
Mass (kg)
RCS (m²)

Purposes: comms

External: N2YO · Heavens-Above · Gunter

§ Orbital elements

Epoch: 2026-09-20T01:30:19.324224Z

Period
94.27 min
Inclination
43.0007°
Eccentricity
0.0001911
Mean motion
15.27591179 rev/d
Perigee alt
481.7 km
Apogee alt
484.3 km
Semi-major
6,861.2 km
B*
5.4607e-4
RAAN
30.9216°
Arg perigee
268.6197°
Mean anomaly
91.4435°
Rev number
3,143

§ Raw data

STARLINK-369881 67998U 26039N   26263.06272366  .00014800  00000+0  54607-3 0  99972 67998  43.0007  30.9216 0001911 268.6197  91.4435 15.27591179 31431

JSON: /api/v1/satellites/67998 · /tle

For live sub-satellite position, see the globe view (requires WebGL).

§ Visibility from observer

Set your observer location to see the next 7 days of passes ≥ 10°. The values pass through the URL so the page stays shareable.

No JS? Fill the form by hand. The geolocation button needs JavaScript.